SCP
0 0 0 0 0 0 0 0 0 0 0 0 0 0 0 1 1 1 1 1 1 2 2 2 2 2 2 2 2 2 2 1 1 2 1 1 1 1 1 1 1 1 0 0
0 0 0 0 0 0 0 0 0 0 0 0 0 0 0 1 1 1 1 1 1 1 1 2 2 2 2 2 2 2 1 1 1 1 1 1 1 1 1 1 1 0 0 0
0 0 0 0 0 0 0 0 0 0 0 0 0 0 0 0 1 1 1 1 1 1 1 1 2 2 2 2 2 1 1 1 1 1 1 1 1 1 1 1 0 0 0 0
0 0 0 0 0 0 0 0 0 0 0 0 0 0 0 0 0 1 1 1 1 1 1 1 1 2 2 2 2 1 1 1 1 1 1 1 1 1 1 0 0 0 0 0
0 0 0 0 0 0 0 0 0 0 0 0 0 0 0 0 0 0 1 1 0 0 1 1 1 1 2 2 2 1 1 1 1 1 1 1 1 1 0 0 0 0 0 0
0 0 0 0 0 0 0 0 0 0 0 0 0 0 0 0 0 0 1 1 1 0 1 1 1 1 1 2 2 2 2 1 1 1 1 1 1 0 0 0 0 0 0 0
0 0 0 0 0 0 0 0 0 0 0 0 0 0 0 0 0 0 1 1 1 1 1 1 1 1 1 1 2 2 2 1 1 1 1 1 1 0 0 0 0 0 0 0
0 0 0 0 0 0 0 0 0 0 0 0 0 0 0 0 0 0 0 1 1 1 1 1 1 1 1 1 2 2 1 1 1 1 1 1 1 0 0 0 0 0 0 0
0 0 0 0 0 0 0 0 0 0 0 0 0 0 0 0 0 0 0 0 1 1 1 1 1 1 1 1 1 1 1 1 1 1 1 1 1 0 0 0 0 0 0 0
0 0 0 0 0 0 0 0 0 0 0 0 0 0 0 0 0 0 0 0 0 0 0 0 0 0 1 1 1 1 1 1 1 1 1 1 1 0 0 0 0 0 0 0
0 0 0 0 0 0 0 0 0 0 0 0 0 0 0 0 0 0 0 0 0 0 0 0 0 0 0 0 0 0 1 1 0 0 0 0 0 0 0 0 0 0 0 0
0 0 0 0 0 0 0 0 0 0 0 0 0 0 0 0 0 0 0 0 0 0 0 0 0 0 0 0 0 0 0 0 0 0 0 0 0 0 0 0 0 0 0 0
0 0 0 0 0 0 0 0 0 0 0 0 0 0 0 0 0 0 0 0 0 0 0 0 0 0 0 0 0 0 0 0 0 0 0 0 0 0 0 0 0 0 0 0
0 0 0 0 0 0 0 0 0 0 0 0 0 0 0 0 0 0 0 0 0 0 0 0 0 0 0 0 0 0 0 0 0 0 0 0 0 0 0 0 0 0 0 0
0 0 0 0 0 0 0 0 0 0 0 0 0 0 0 0 0 0 0 0 0 0 0 0 0 0 0 0 0 0 0 0 0 0 0 0 0 0 0 0 0 0 0 0
0 0 0 0 0 0 0 0 0 0 0 0 0 0 0 0 0 0 0 0 0 0 0 0 0 0 0 0 0 0 0 0 0 0 0 0 0 0 0 -0 0 0 0 0
0 0 0 0 0 0 0 0 0 0 0 0 0 0 0 0 0 0 0 0 0 0 0 0 0 0 0 0 0 0 0 0 0 0 0 0 0 0 0 0 0 0 0 0
0 0 0 0 0 0 0 0 0 0 0 0 0 0 0 0 0 0 0 0 0 0 0 0 0 0 0 0 0 0 0 0 0 0 0 0 0 0 0 0 0 0 0 0
0 0 0 0 0 0 0 0 0 0 0 0 0 0 0 0 0 0 0 0 0 0 0 0 0 0 0 0 0 0 0 0 0 0 0 0 0 0 0 0 0 0 0 0
0 0 0 0 0 0 0 0 0 0 0 0 0 0 0 0 0 0 0 0 0 0 0 0 0 0 0 0 0 0 0 0 0 0 0 0 0 0 0 0 0 0 0 0
0 0 0 0 0 0 0 0 0 0 0 0 0 0 0 0 0 0 0 0 0 0 0 0 0 0 0 0 0 0 0 0 0 0 0 0 0 0 0 0 0 0 0 0
0 0 0 0 0 0 0 0 0 0 0 0 0 0 0 0 0 0 0 0 0 0 0 0 0 0 0 0 0 0 0 0 0 0 0 0 0 0 0 0 0 0 0 0
0 0 0 0 0 0 0 0 0 0 0 0 0 0 0 0 0 0 0 0 0 0 0 0 0 0 0 0 0 0 0 0 0 0 0 0 0 0 0 0 0 0 0 0
0 0 0 0 0 0 0 0 0 0 0 0 0 0 0 0 0 0 0 0 0 0 0 0 0 0 0 0 0 0 0 0 0 0 0 0 0 0 0 0 0 0 0 0
0 0 0 0 0 0 0 0 0 0 0 0 0 0 0 0 0 0 0 0 0 0 0 0 0 0 0 0 0 0 0 0 0 0 0 0 0 0 0 0 0 0 0 0
0 0 0 0 0 0 0 0 -0 0 0 0 0 0 0 0 0 0 0 0 0 0 0 0 0 0 0 0 0 0 0 0 0 0 0 0 0 0 0 0 0 0 0 0
Wind_Speed
2 3 3 8 7 7 5 4 6 8 6 3 2 3 2 3 2 3 3 4 5 6 5 6 7 8 7 6 6 5 5 3 3 3 3 3 2 2 2 2 3 3 3 3
5 4 11 8 6 3 3 4 6 7 5 2 2 3 1 2 3 5 6 4 5 5 4 5 6 6 7 6 6 5 4 3 3 2 2 2 3 2 2 1 1 2 2 2
5 9 6 3 5 3 3 2 4 5 5 4 2 4 3 2 1 2 2 4 5 6 7 7 7 6 5 5 5 5 5 5 4 3 2 2 2 1 1 1 1 1 2 2
5 6 4 4 4 1 3 5 3 4 3 4 2 2 5 2 2 1 1 2 3 4 5 6 7 6 6 5 4 4 4 3 3 3 4 5 3 2 2 1 1 0 1 1
6 5 4 4 5 1 4 4 2 2 1 3 4 1 6 3 2 4 4 3 3 5 7 6 7 7 6 5 4 4 4 3 2 3 5 5 3 2 1 1 1 1 1 0
7 5 2 4 4 2 1 5 6 5 5 3 3 0 5 3 4 4 3 3 3 4 6 6 5 5 5 5 4 4 4 3 2 3 4 5 5 4 3 2 1 1 1 1
7 6 4 2 5 7 6 6 6 7 5 5 4 0 5 5 4 4 4 4 3 5 6 6 6 5 5 6 5 5 4 3 2 3 3 4 5 5 5 4 3 2 1 1
4 7 5 3 1 2 2 5 5 3 4 6 4 2 6 6 4 2 3 3 4 4 4 5 6 6 6 6 6 6 6 4 3 3 3 3 3 3 3 3 3 3 2 2
1 5 6 5 3 1 2 1 5 5 2 3 4 3 5 3 3 1 1 3 3 3 3 3 4 5 5 5 6 6 6 4 3 3 3 2 3 3 3 3 2 2 1 2
1 4 5 6 5 4 2 2 4 3 0 4 5 4 5 5 4 2 1 3 3 3 3 3 4 4 4 4 4 5 5 4 3 3 3 2 2 3 3 2 3 2 1 1
2 0 6 5 2 4 4 3 2 2 4 3 4 7 6 7 5 4 4 4 5 5 4 3 2 3 3 3 3 3 3 3 2 2 2 2 2 2 2 2 2 2 2 1
3 2 3 6 7 3 1 2 3 2 4 4 3 9 6 4 3 3 3 4 4 4 3 3 2 2 3 3 3 3 2 2 2 2 2 2 2 2 2 2 2 2 2 1
3 3 4 9 8 6 4 3 3 1 2 2 3 8 3 1 0 1 3 3 4 4 3 3 3 3 3 3 3 3 2 2 2 2 2 2 2 2 2 2 1 2 2 1
3 2 4 6 7 6 7 9 8 3 2 4 7 7 4 3 3 2 2 4 5 5 5 4 3 2 2 3 3 3 2 2 3 2 2 3 2 2 2 1 1 1 2 2
4 2 5 7 8 8 10 11 9 7 6 6 8 6 6 6 5 5 4 4 5 5 5 5 4 3 2 2 2 2 2 3 3 3 2 1 1 1 2 1 1 1 2 2
1 3 4 7 8 9 11 11 9 7 5 4 4 4 4 2 1 3 4 5 5 5 4 4 4 3 3 2 2 2 2 2 2 3 2 1 2 2 2 2 2 2 1 1
3 2 3 7 9 7 7 5 4 3 2 3 4 5 1 1 2 4 5 6 5 5 4 3 3 3 3 3 3 3 2 2 3 3 2 2 2 2 1 2 2 2 1 2
5 3 2 4 4 5 7 3 2 2 3 1 1 1 3 3 3 3 4 5 5 4 4 4 3 2 2 2 2 3 2 3 3 3 2 2 3 2 2 2 1 1 1 2
6 5 2 2 3 7 6 4 4 3 5 1 0 1 1 3 3 1 1 4 5 4 4 4 3 3 2 2 3 3 2 2 2 2 2 2 2 2 1 2 1 1 1 1
4 3 2 2 3 6 5 5 5 2 3 4 2 2 1 2 1 3 2 3 3 3 3 3 3 3 2 2 2 3 2 2 2 2 2 2 3 3 2 1 1 1 1 1
5 3 2 4 5 7 4 5 4 1 6 5 3 2 1 3 5 4 3 3 3 4 3 4 4 3 3 3 3 3 2 2 2 2 3 2 2 3 2 1 1 1 1 0
3 3 3 2 3 7 6 5 1 5 4 2 2 2 2 2 1 2 4 4 4 3 3 3 4 3 2 3 4 3 3 3 2 3 2 2 2 2 2 1 1 0 1 1
3 4 3 4 7 7 6 4 5 2 2 2 2 3 3 2 2 2 4 5 5 4 3 3 4 3 2 3 4 4 3 3 3 3 3 2 2 1 1 2 1 0 0 1
5 2 2 6 8 9 8 6 4 2 3 4 4 4 3 3 3 3 4 4 4 3 3 3 4 4 3 3 3 3 3 3 4 3 2 2 2 1 1 1 1 1 1 1
8 5 5 9 9 7 7 5 5 6 5 4 3 3 4 5 4 5 5 5 4 3 3 3 4 5 4 3 3 3 3 3 3 3 2 2 2 2 1 0 1 2 3 4
6 7 7 10 9 7 10 7 6 5 5 4 4 3 4 6 6 5 5 5 5 4 4 3 4 4 4 3 3 3 3 4 4 3 2 2 1 1 1 1 2 3 3 5
Wind_Direction
347 59 260 251 227 217 243 279 288 281 289 1 338 314 270 206 154 150 155 163 168 167 171 154 144 142 139 140 135 139 145 158 153 151 162 168 170 166 168 168 163 163 161 148
11 281 248 250 265 269 290 307 298 297 302 332 342 326 330 114 154 159 154 150 151 149 146 146 141 148 149 150 144 139 139 145 176 181 183 174 165 169 176 165 141 148 145 144
230 252 270 276 298 315 309 272 283 293 327 358 32 341 345 348 51 77 121 141 151 153 157 158 152 151 146 148 152 156 164 166 177 173 145 113 91 82 100 111 145 176 149 143
276 272 312 329 310 340 296 274 286 314 358 310 23 302 306 288 14 6 242 156 163 156 155 160 158 157 155 158 158 162 164 158 168 161 142 143 146 149 170 163 158 152 71 101
282 282 306 307 279 257 255 286 316 307 324 340 2 94 290 336 327 275 252 200 173 164 156 162 164 165 159 156 161 161 148 140 155 150 146 143 135 144 114 90 85 46 5 12
266 278 260 266 288 285 326 12 10 28 56 359 303 234 284 286 262 257 238 213 177 154 152 158 154 151 157 159 151 145 140 149 162 147 139 143 152 149 129 119 166 225 261 296
320 321 322 348 357 344 31 54 15 359 4 274 300 329 253 257 252 217 204 194 175 155 155 158 158 161 162 167 163 153 149 161 169 160 156 160 165 163 165 178 186 181 206 239
340 312 320 344 341 285 313 123 150 226 253 280 320 250 253 248 257 224 177 171 158 151 154 166 170 166 167 171 167 157 165 171 170 174 176 173 172 164 165 176 167 176 192 207
300 288 310 324 330 106 4 310 174 150 264 294 285 275 288 274 292 327 101 111 147 147 140 162 168 167 171 170 168 168 171 171 176 178 167 160 170 161 158 160 163 172 194 203
162 288 303 323 6 6 125 166 73 84 267 284 287 268 254 260 261 254 199 172 183 159 149 160 172 181 181 165 153 155 167 175 179 170 162 155 167 164 160 149 154 170 190 205
28 294 309 342 347 304 340 3 80 134 174 196 264 266 242 231 223 219 213 183 174 172 172 175 176 174 161 141 136 144 152 147 153 160 152 148 157 155 143 148 168 177 179 196
3 94 294 282 277 254 245 235 158 186 252 207 223 268 273 216 206 192 192 175 160 156 161 157 142 112 117 122 130 137 144 139 152 158 150 149 141 142 159 182 187 166 165 185
5 67 347 335 341 351 346 322 313 212 174 205 221 265 310 351 256 174 167 161 156 148 143 123 113 113 121 134 136 137 146 145 140 130 136 138 147 155 175 192 184 166 158 135
53 128 186 237 260 284 297 304 307 302 258 254 241 260 289 287 267 238 179 172 160 149 145 135 128 127 128 134 147 148 148 139 135 128 129 150 170 175 179 169 146 152 148 139
55 256 251 256 268 284 289 293 290 274 250 246 263 259 252 238 225 198 170 161 149 152 152 151 150 144 135 136 156 151 141 132 130 127 134 164 166 151 148 135 127 134 138 133
7 253 290 292 289 295 294 294 290 280 267 254 269 272 280 240 147 149 153 151 157 166 166 161 153 148 146 160 162 143 142 144 137 138 150 151 127 129 141 153 142 137 134 121
241 226 295 282 292 311 289 279 285 291 278 236 255 260 290 20 182 186 174 168 170 168 167 169 168 169 175 177 173 167 169 154 142 141 139 126 120 112 144 157 134 149 154 131
209 225 220 270 315 263 252 279 310 289 277 248 209 253 219 190 202 192 170 165 165 165 165 167 163 167 190 173 154 149 137 142 143 141 143 147 138 129 137 135 125 147 147 142
193 183 199 217 259 273 290 327 329 298 286 309 190 275 192 89 57 25 161 151 163 171 168 168 168 162 163 159 152 135 131 138 138 147 157 160 151 131 112 136 141 150 135 126
37 103 168 224 255 262 267 314 320 328 279 327 347 287 228 93 67 256 233 146 131 133 138 146 142 130 145 164 145 135 148 154 172 176 173 167 151 137 140 166 170 145 133 163
347 336 254 246 249 260 267 323 4 8 270 295 284 258 251 240 229 215 177 155 142 142 149 144 139 148 175 170 150 148 157 190 192 166 153 150 151 155 160 164 164 133 122 95
276 271 265 249 253 264 318 345 311 248 266 265 256 260 255 255 252 179 165 158 152 145 144 150 148 163 175 157 151 162 194 206 166 144 146 155 171 177 160 160 185 144 120 86
242 211 223 224 241 270 292 268 264 237 277 263 228 229 196 201 219 196 178 168 167 164 160 166 163 168 171 166 158 176 209 186 157 150 164 180 192 202 185 177 187 209 157 156
281 290 286 288 284 296 298 312 315 307 298 274 231 207 186 196 199 192 180 177 175 172 173 174 164 164 181 194 178 186 189 168 148 150 163 174 172 196 203 196 196 196 217 223
265 294 287 280 283 299 296 301 301 312 316 305 283 219 181 177 186 182 173 181 181 178 185 173 175 177 186 189 186 185 172 150 146 158 165 168 168 169 187 248 238 220 233 213
249 246 251 263 268 271 278 282 294 300 292 278 281 253 199 178 174 172 177 182 178 182 181 176 181 180 183 183 187 194 178 156 151 156 164 171 169 173 182 198 324 314 263 259